Погода в Опошне

Украина / Полтавская область     49°57′46″N   34°36′39″E
темп.,
°C
ветер,
м/с
пор.,
м/с
влажн.,
%
обл.,
%
осадки,
мм/ч
давл.,
гПа
погр.,
м
19 апреля, пн
пн1900:00+5сз239513 0.1 101778
03:00+4с2396100 0.1 101762
06:00+4ссв2395100 0.0 1016107
09:00+8св3480100 0.0 1016480
12:00+10св3360100 0.1 10161345
15:00+11св3459100 0.1 10161066
18:00+11ссв245577 0.0 10141214
21:00+7всв117428 0.0 101511
20 апреля, вт
вт2000:00+6ссв117968 0.0 101411
03:00+5св228315 0.0 101316
06:00+4св368993 0.0 101196
09:00+8св5879100 0.0 1009289
12:00+11св5871100 0.2 1007839
15:00+10всв71186100 1.2 1004788
18:00+9с61092100 3.2 1001684
21:00+8с61090100 4.4 1002726
21 апреля, ср
ср2100:00+8сз5992100 0.1 1003536
03:00+7зсз51092100 0.1 1005595
06:00+5з389795 0.0 1008265
09:00+8зюз4689100 0.3 1010480
12:00+10з6772100 0.9 1012975
15:00+11зюз6759100 1.3 10131672
18:00+11з5761100 0.1 10141337
21:00+7ююз2273100 0.1 101622
22 апреля, чт
чт2200:00+6ю37805 0.0 1016108
03:00+6ююз488495 0.0 1017145
06:00+5ююз488963 0.0 1017145
09:00+11ююз57678 0.0 1018462
12:00+15юз685496 0.8 10181490
15:00+16юз6849100 1.5 10182291
18:00+15ююз5957100 0.0 1018470
21:00+11ююз4107445 0.1 1019243
23 апреля, пт
пт2300:00+8ююз498593 0.3 1019160
03:00+8ю4108818 0.9 1019190
06:00+7ю412875 0.0 1019248
09:00+12ю711695 0.0 1018624
12:00+16ююз89545 0.0 10181380
15:00+18ююз9104298 0.4 10152739
18:00+15ююз61055100 0.1 10151111
21:00+11ю5117399 1.4 1015289